SBI1520 UNNT-UNOO

Flight info

Callsign SBI1520
Flight time N/A
Altitude 34000
Route OGAMA1K OGAMA A308 OSNAB G828 SZ A487 URUKI A844 RUMOD RUMOD6B
Aircraft A321/M-SDE3FGHIRWY/LB1

Departure

Time 2026-04-27 11:44
Airport Novosibirsk Tolmachevo Airport (UNNT)

Arrival

Time N/A
Airport Omsk Central Airport (UNOO)
Time Latitude Longitude Altitude Speed Heading
2026-04-27 11:12 55.01028 82.66668 373 ft 0 kts 170°
2026-04-27 11:28 55.01030 82.66667 373 ft 1 kts 170°
2026-04-27 11:28 55.01040 82.66664 373 ft 2 kts 170°
2026-04-27 11:29 55.01052 82.66661 373 ft 2 kts 170°
2026-04-27 11:29 55.01064 82.66657 373 ft 2 kts 170°
2026-04-27 11:29 55.01077 82.66653 373 ft 2 kts 170°
2026-04-27 11:29 55.01088 82.66639 373 ft 2 kts 71°
2026-04-27 11:30 55.01082 82.66615 373 ft 2 kts 64°
2026-04-27 11:30 55.01075 82.66591 373 ft 2 kts 113°
2026-04-27 11:30 55.01084 82.66571 373 ft 2 kts 161°
2026-04-27 11:30 55.01098 82.66562 373 ft 2 kts 162°
2026-04-27 11:31 55.01100 82.66561 373 ft 0 kts 163°
2026-04-27 11:32 55.01099 82.66561 373 ft 1 kts 163°
2026-04-27 11:32 55.01090 82.66569 373 ft 3 kts 149°
2026-04-27 11:32 55.01084 82.66625 373 ft 7 kts 78°
2026-04-27 11:32 55.01094 82.66707 373 ft 7 kts 77°
2026-04-27 11:33 55.01099 82.66801 373 ft 8 kts 91°
2026-04-27 11:33 55.01081 82.66899 373 ft 9 kts 111°
2026-04-27 11:33 55.01085 82.67009 373 ft 10 kts 81°
2026-04-27 11:33 55.01095 82.67127 373 ft 10 kts 81°
2026-04-27 11:34 55.01106 82.67256 373 ft 11 kts 83°
2026-04-27 11:34 55.01110 82.67397 373 ft 12 kts 82°
2026-04-27 11:34 55.01161 82.67503 373 ft 12 kts 31°
2026-04-27 11:34 55.01238 82.67581 373 ft 13 kts 31°
2026-04-27 11:35 55.01320 82.67666 373 ft 14 kts 31°
2026-04-27 11:35 55.01352 82.67700 373 ft 0 kts 31°
2026-04-27 11:35 55.01357 82.67706 373 ft 2 kts 31°
2026-04-27 11:40 55.01360 82.67709 372 ft 1 kts 31°
2026-04-27 11:40 55.01380 82.67730 372 ft 6 kts 31°
2026-04-27 11:41 55.01429 82.67775 372 ft 10 kts 16°
2026-04-27 11:41 55.01483 82.67722 371 ft 9 kts 281°
2026-04-27 11:41 55.01481 82.67677 371 ft 0 kts 262°
2026-04-27 11:41 55.01481 82.67676 371 ft 0 kts 262°
2026-04-27 11:42 55.01480 82.67674 371 ft 0 kts 262°
2026-04-27 11:43 55.01477 82.67625 371 ft 25 kts 262°
2026-04-27 11:43 55.01410 82.66894 375 ft 95 kts 262°
2026-04-27 11:44 55.01274 82.65402 374 ft 152 kts 261°
2026-04-27 11:44 55.01096 82.63403 719 ft 170 kts 262°
2026-04-27 11:44 55.00900 82.61384 1502 ft 167 kts 263°
2026-04-27 11:44 55.00733 82.59385 2026 ft 176 kts 263°
2026-04-27 11:45 55.00550 82.57187 2351 ft 192 kts 263°
2026-04-27 11:45 55.00409 82.55609 2624 ft 198 kts 262°
2026-04-27 11:45 55.00670 82.52410 2988 ft 215 kts 296°
2026-04-27 11:45 55.01459 82.50014 3162 ft 240 kts 300°
2026-04-27 11:46 55.02330 82.47476 3755 ft 247 kts 300°
2026-04-27 11:46 55.03217 82.44905 4547 ft 249 kts 300°
2026-04-27 11:46 55.04113 82.42315 5353 ft 250 kts 300°
2026-04-27 11:46 55.05001 82.39737 6084 ft 253 kts 300°
2026-04-27 11:47 55.05905 82.37095 6806 ft 256 kts 300°
2026-04-27 11:47 55.06818 82.34412 7473 ft 259 kts 299°
2026-04-27 11:47 55.07742 82.31693 8211 ft 261 kts 299°
2026-04-27 11:47 55.08671 82.28952 8907 ft 264 kts 299°
2026-04-27 11:48 55.09610 82.26184 9609 ft 266 kts 299°
2026-04-27 11:48 55.10560 82.23385 10282 ft 269 kts 299°
2026-04-27 11:48 55.11538 82.20490 10540 ft 288 kts 298°
2026-04-27 11:48 55.12587 82.17366 10670 ft 308 kts 298°
2026-04-27 11:49 55.13698 82.14064 10960 ft 320 kts 298°
2026-04-27 11:49 55.14820 82.10731 11509 ft 324 kts 298°
2026-04-27 11:49 55.15968 82.07320 12100 ft 327 kts 298°
2026-04-27 11:49 55.17124 82.03885 12713 ft 329 kts 297°
2026-04-27 11:50 55.18287 82.00425 13334 ft 331 kts 297°
2026-04-27 11:50 55.19459 81.96930 13925 ft 333 kts 297°
2026-04-27 11:50 55.20634 81.93415 14482 ft 335 kts 297°
2026-04-27 11:50 55.21814 81.89879 15035 ft 337 kts 296°
2026-04-27 11:51 55.22598 81.87526 15391 ft 338 kts 296°
2026-04-27 11:51 55.24169 81.82793 16110 ft 340 kts 296°
2026-04-27 11:51 55.26551 81.75607 17306 ft 341 kts 296°
2026-04-27 11:52 55.27745 81.71998 17868 ft 343 kts 296°
2026-04-27 11:52 55.28938 81.68386 18365 ft 342 kts 296°
2026-04-27 11:52 55.29730 81.65989 18663 ft 343 kts 296°
2026-04-27 11:52 55.31337 81.61116 19252 ft 346 kts 295°
2026-04-27 11:53 55.32139 81.58679 19538 ft 348 kts 295°
2026-04-27 11:53 55.33353 81.54993 19959 ft 350 kts 295°
2026-04-27 11:53 55.34571 81.51288 20385 ft 352 kts 295°
2026-04-27 11:53 55.36193 81.46336 20957 ft 354 kts 295°
2026-04-27 11:54 55.37425 81.42562 21375 ft 356 kts 295°
2026-04-27 11:54 55.38660 81.38773 21789 ft 358 kts 294°
2026-04-27 11:54 55.39902 81.34959 22188 ft 360 kts 294°
2026-04-27 11:54 55.40726 81.32429 22465 ft 362 kts 294°
2026-04-27 11:55 55.41979 81.28577 22866 ft 364 kts 294°
2026-04-27 11:55 55.43235 81.24698 23272 ft 365 kts 294°
2026-04-27 11:55 55.44495 81.20800 23671 ft 367 kts 294°
2026-04-27 11:55 55.45764 81.16872 24012 ft 369 kts 294°
2026-04-27 11:56 55.47135 81.11447 24481 ft 364 kts 282°
2026-04-27 11:56 55.47570 81.08536 24709 ft 363 kts 279°
2026-04-27 11:56 55.48168 81.04199 25034 ft 365 kts 279°
2026-04-27 11:56 55.48762 80.99890 25334 ft 368 kts 279°
2026-04-27 11:57 55.49366 80.95504 25635 ft 370 kts 279°
2026-04-27 11:57 55.49977 80.91070 25935 ft 372 kts 279°
2026-04-27 11:57 55.50590 80.86625 26233 ft 374 kts 279°
2026-04-27 11:57 55.51207 80.82150 26526 ft 376 kts 279°
2026-04-27 11:58 55.51825 80.77649 26814 ft 379 kts 279°
2026-04-27 11:58 55.52443 80.73125 27102 ft 381 kts 279°
2026-04-27 11:58 55.53061 80.68565 27387 ft 383 kts 279°
2026-04-27 11:58 55.53668 80.64052 27656 ft 385 kts 279°
2026-04-27 11:59 55.54285 80.59433 27929 ft 387 kts 279°
2026-04-27 11:59 55.54905 80.54798 28204 ft 389 kts 279°
2026-04-27 11:59 55.55529 80.50136 28476 ft 391 kts 279°
2026-04-27 11:59 55.56157 80.45438 28732 ft 394 kts 279°
2026-04-27 12:00 55.56785 80.40718 28983 ft 396 kts 279°
2026-04-27 12:00 55.57412 80.35975 29245 ft 398 kts 279°
2026-04-27 12:00 55.58041 80.31203 29496 ft 400 kts 279°
2026-04-27 12:00 55.58666 80.26462 29734 ft 402 kts 279°
2026-04-27 12:01 55.59299 80.21641 29963 ft 404 kts 279°
2026-04-27 12:01 55.59935 80.16802 30183 ft 405 kts 279°
2026-04-27 12:01 55.60575 80.11933 30365 ft 407 kts 279°
2026-04-27 12:01 55.61211 80.07049 30531 ft 409 kts 279°
2026-04-27 12:02 55.61846 80.02134 30712 ft 409 kts 279°
2026-04-27 12:02 55.62478 79.97222 30943 ft 409 kts 278°
2026-04-27 12:02 55.62854 79.92273 31143 ft 405 kts 269°
2026-04-27 12:02 55.62753 79.87312 31343 ft 403 kts 262°
2026-04-27 12:03 55.62196 79.82512 31504 ft 404 kts 253°
2026-04-27 12:03 55.61393 79.77748 31676 ft 405 kts 254°
2026-04-27 12:03 55.60592 79.72970 31873 ft 405 kts 254°
2026-04-27 12:03 55.59790 79.68188 32070 ft 406 kts 254°
2026-04-27 12:04 55.58989 79.63408 32267 ft 406 kts 254°
2026-04-27 12:04 55.58188 79.58629 32453 ft 406 kts 254°
2026-04-27 12:04 55.57380 79.53848 32644 ft 406 kts 254°
2026-04-27 12:04 55.56566 79.49060 32828 ft 407 kts 254°
2026-04-27 12:05 55.55749 79.44278 33024 ft 407 kts 254°
2026-04-27 12:05 55.54942 79.39549 33208 ft 407 kts 254°
2026-04-27 12:05 55.54124 79.34762 33386 ft 408 kts 255°
2026-04-27 12:05 55.53303 79.29972 33562 ft 408 kts 255°
2026-04-27 12:06 55.52478 79.25189 33749 ft 408 kts 255°
2026-04-27 12:06 55.51651 79.20394 33933 ft 408 kts 255°
2026-04-27 12:06 55.50826 79.15610 34128 ft 408 kts 255°
2026-04-27 12:07 55.49171 79.06080 34206 ft 404 kts 255°
2026-04-27 12:07 55.47534 78.96679 34208 ft 403 kts 255°
2026-04-27 12:08 55.45884 78.87246 34212 ft 403 kts 255°
2026-04-27 12:08 55.44224 78.77828 34209 ft 402 kts 255°
2026-04-27 12:09 55.42553 78.68423 34209 ft 402 kts 255°
2026-04-27 12:09 55.40885 78.59110 34215 ft 402 kts 254°
2026-04-27 12:10 55.39206 78.49717 34221 ft 402 kts 254°
2026-04-27 12:10 55.37514 78.40329 34225 ft 402 kts 254°
2026-04-27 12:11 55.36101 78.30850 34230 ft 400 kts 265°
2026-04-27 12:11 55.36353 78.21116 34228 ft 400 kts 276°
2026-04-27 12:12 55.37043 78.11478 34224 ft 400 kts 276°
2026-04-27 12:12 55.37723 78.01761 34226 ft 400 kts 276°
2026-04-27 12:13 55.38397 77.92031 34233 ft 401 kts 276°
2026-04-27 12:13 55.39053 77.82363 34234 ft 401 kts 276°
2026-04-27 12:14 55.39707 77.72642 34233 ft 401 kts 276°
2026-04-27 12:14 55.40354 77.62908 34233 ft 400 kts 276°
2026-04-27 12:15 55.40997 77.53181 34242 ft 400 kts 276°
2026-04-27 12:15 55.41626 77.43459 34255 ft 400 kts 276°
2026-04-27 12:16 55.42246 77.33801 34247 ft 400 kts 276°
2026-04-27 12:16 55.42863 77.24067 34247 ft 400 kts 276°
2026-04-27 12:17 55.43476 77.14329 34244 ft 400 kts 275°
2026-04-27 12:17 55.44076 77.04596 34233 ft 400 kts 275°
2026-04-27 12:18 55.44668 76.94862 34238 ft 400 kts 275°
2026-04-27 12:18 55.45247 76.85188 34240 ft 400 kts 275°
2026-04-27 12:19 55.45819 76.75451 34242 ft 400 kts 275°
2026-04-27 12:19 55.46395 76.65702 34245 ft 400 kts 275°
2026-04-27 12:20 55.46961 76.55956 34243 ft 400 kts 275°
2026-04-27 12:20 55.47509 76.46266 34241 ft 400 kts 275°
2026-04-27 12:21 55.48050 76.36516 34238 ft 400 kts 275°
2026-04-27 12:21 55.48591 76.26767 34243 ft 400 kts 275°
2026-04-27 12:22 55.49121 76.17021 34245 ft 399 kts 275°
2026-04-27 12:22 55.49640 76.07349 34247 ft 399 kts 275°
2026-04-27 12:23 55.50148 75.97616 34034 ft 393 kts 275°
2026-04-27 12:23 55.50391 75.92868 33761 ft 386 kts 275°
2026-04-27 12:23 55.50632 75.88177 33503 ft 382 kts 276°
2026-04-27 12:23 55.50868 75.83539 33240 ft 378 kts 276°
2026-04-27 12:24 55.51102 75.78941 32977 ft 376 kts 276°
2026-04-27 12:24 55.51335 75.74352 32716 ft 373 kts 276°
2026-04-27 12:24 55.51562 75.69822 32457 ft 370 kts 276°
2026-04-27 12:24 55.51781 75.65366 32205 ft 368 kts 276°
2026-04-27 12:25 55.51997 75.60888 31954 ft 365 kts 276°
2026-04-27 12:25 55.52209 75.56435 31697 ft 363 kts 277°
2026-04-27 12:25 55.52418 75.52017 31460 ft 359 kts 277°
2026-04-27 12:25 55.52625 75.47676 31146 ft 352 kts 277°
2026-04-27 12:26 55.52829 75.43401 30747 ft 347 kts 277°
2026-04-27 12:26 55.53030 75.39186 30376 ft 342 kts 278°
2026-04-27 12:26 55.53222 75.35095 29950 ft 336 kts 278°
2026-04-27 12:26 55.53409 75.31028 29592 ft 329 kts 278°
2026-04-27 12:27 55.53590 75.27040 29246 ft 323 kts 278°
2026-04-27 12:27 55.53764 75.23134 28904 ft 316 kts 278°
2026-04-27 12:27 55.53934 75.19304 28568 ft 310 kts 278°
2026-04-27 12:27 55.54103 75.15541 28252 ft 307 kts 278°
2026-04-27 12:28 55.54274 75.11794 27931 ft 306 kts 278°
2026-04-27 12:28 55.54444 75.08062 27610 ft 305 kts 278°
2026-04-27 12:28 55.54613 75.04339 27252 ft 303 kts 278°
2026-04-27 12:28 55.54508 75.00614 26472 ft 319 kts 261°
2026-04-27 12:29 55.53558 74.96942 25599 ft 341 kts 245°
2026-04-27 12:29 55.52253 74.93361 24693 ft 352 kts 244°
2026-04-27 12:29 55.50894 74.89689 23782 ft 363 kts 243°
2026-04-27 12:29 55.49496 74.85950 23161 ft 362 kts 243°
2026-04-27 12:30 55.48114 74.82281 22628 ft 358 kts 244°
2026-04-27 12:30 55.46748 74.78637 22038 ft 356 kts 244°
2026-04-27 12:30 55.45391 74.74997 21474 ft 353 kts 244°
2026-04-27 12:30 55.44049 74.71393 20958 ft 351 kts 243°
2026-04-27 12:31 55.42715 74.67811 20423 ft 349 kts 243°
2026-04-27 12:31 55.41410 74.64310 19777 ft 344 kts 243°
2026-04-27 12:31 55.40103 74.60804 18990 ft 341 kts 243°
2026-04-27 12:31 55.38807 74.57330 18211 ft 338 kts 242°
2026-04-27 12:32 55.37517 74.53882 17385 ft 335 kts 242°
2026-04-27 12:32 55.36244 74.50481 16588 ft 332 kts 242°
2026-04-27 12:32 55.34980 74.47107 15822 ft 329 kts 242°
2026-04-27 12:32 55.33728 74.43766 15062 ft 326 kts 241°
2026-04-27 12:33 55.32499 74.40502 14322 ft 323 kts 241°
2026-04-27 12:33 55.31250 74.37187 13533 ft 320 kts 240°
2026-04-27 12:33 55.30041 74.33980 12705 ft 318 kts 240°
2026-04-27 12:33 55.28823 74.30760 12121 ft 310 kts 240°
2026-04-27 12:34 55.27665 74.27720 11863 ft 293 kts 240°
2026-04-27 12:34 55.26544 74.24778 11329 ft 288 kts 240°
2026-04-27 12:34 55.25440 74.21870 10758 ft 285 kts 240°
2026-04-27 12:34 55.24352 74.18994 10193 ft 282 kts 240°
2026-04-27 12:35 55.23272 74.16141 9636 ft 278 kts 239°
2026-04-27 12:35 55.22225 74.13384 9285 ft 267 kts 239°
2026-04-27 12:35 55.21220 74.10738 8971 ft 262 kts 239°
2026-04-27 12:35 55.20219 74.08103 8653 ft 258 kts 239°
2026-04-27 12:36 55.19228 74.05501 8342 ft 255 kts 239°
2026-04-27 12:36 55.18248 74.02932 8023 ft 252 kts 239°
2026-04-27 12:36 55.17282 74.00401 7728 ft 249 kts 238°
2026-04-27 12:36 55.16326 73.97902 7428 ft 246 kts 238°
2026-04-27 12:37 55.15377 73.95427 7129 ft 243 kts 238°
2026-04-27 12:37 55.14439 73.92985 6837 ft 241 kts 238°
2026-04-27 12:37 55.13505 73.90556 6546 ft 239 kts 237°
2026-04-27 12:37 55.12593 73.88187 6245 ft 237 kts 238°
2026-04-27 12:38 55.11675 73.85800 5939 ft 236 kts 238°
2026-04-27 12:38 55.10758 73.83419 5661 ft 235 kts 238°
2026-04-27 12:38 55.09849 73.81056 5377 ft 234 kts 238°
2026-04-27 12:38 55.08941 73.78702 5086 ft 234 kts 238°
2026-04-27 12:39 55.08034 73.76354 4771 ft 233 kts 237°
2026-04-27 12:39 55.07129 73.74016 4489 ft 231 kts 238°
2026-04-27 12:39 55.06227 73.71685 4100 ft 233 kts 237°
2026-04-27 12:39 55.05332 73.69371 3725 ft 233 kts 237°
2026-04-27 12:40 55.04431 73.67045 3436 ft 229 kts 238°
2026-04-27 12:40 55.03554 73.64790 3364 ft 223 kts 238°
2026-04-27 12:40 55.02682 73.62550 3281 ft 223 kts 238°
2026-04-27 12:40 55.01813 73.60309 3182 ft 223 kts 238°
2026-04-27 12:41 55.00952 73.58096 3104 ft 215 kts 238°
2026-04-27 12:41 55.00149 73.55941 2977 ft 209 kts 244°
2026-04-27 12:41 54.99698 73.53594 2751 ft 204 kts 257°
2026-04-27 12:41 54.99386 73.51219 2486 ft 196 kts 258°
2026-04-27 12:42 54.99096 73.49017 2246 ft 181 kts 258°
2026-04-27 12:42 54.98830 73.46994 1991 ft 161 kts 258°
2026-04-27 12:42 54.98592 73.45195 1779 ft 146 kts 258°
2026-04-27 12:42 54.98369 73.43503 1575 ft 142 kts 258°
2026-04-27 12:43 54.98150 73.41843 1388 ft 140 kts 258°
2026-04-27 12:43 54.97932 73.40195 1187 ft 139 kts 257°
2026-04-27 12:43 54.97717 73.38553 1009 ft 139 kts 257°
2026-04-27 12:43 54.97509 73.36905 783 ft 140 kts 257°
2026-04-27 12:44 54.97288 73.35253 618 ft 142 kts 257°
2026-04-27 12:44 54.97050 73.33611 415 ft 141 kts 258°
2026-04-27 12:44 54.96836 73.31974 314 ft 129 kts 256°
2026-04-27 12:44 54.96661 73.30627 313 ft 102 kts 257°
2026-04-27 12:45 54.96448 73.29040 361 ft 165 kts 256°
2026-04-27 12:45 54.96184 73.27089 1275 ft 166 kts 257°
2026-04-27 12:45 54.95924 73.25101 1821 ft 175 kts 258°
2026-04-27 12:45 54.95719 73.22986 1945 ft 192 kts 271°
2026-04-27 12:46 54.96239 73.20684 2216 ft 210 kts 309°
2026-04-27 12:46 54.97454 73.19208 2394 ft 218 kts 334°
2026-04-27 12:46 54.98925 73.18362 2387 ft 226 kts 341°
2026-04-27 12:46 55.00425 73.17671 2400 ft 227 kts 348°
2026-04-27 12:47 55.01993 73.17947 2407 ft 232 kts 21°
2026-04-27 12:47 55.03260 73.19689 2409 ft 238 kts 55°
2026-04-27 12:47 55.03963 73.22301 2412 ft 239 kts 70°
2026-04-27 12:47 55.04488 73.25069 2410 ft 241 kts 71°
2026-04-27 12:48 55.04986 73.27856 2408 ft 241 kts 72°
2026-04-27 12:48 55.05485 73.30640 2412 ft 240 kts 72°
2026-04-27 12:48 55.05984 73.33428 2411 ft 241 kts 72°
2026-04-27 12:48 55.06484 73.36228 2411 ft 241 kts 72°
2026-04-27 12:49 55.06970 73.38981 2406 ft 240 kts 72°
2026-04-27 12:49 55.07458 73.41773 2409 ft 241 kts 74°
2026-04-27 12:49 55.07522 73.44653 2408 ft 240 kts 106°
2026-04-27 12:49 55.06724 73.47152 2410 ft 237 kts 140°
2026-04-27 12:50 55.05346 73.48652 2416 ft 234 kts 156°
2026-04-27 12:50 55.03855 73.49790 2227 ft 233 kts 161°
2026-04-27 12:50 55.02440 73.51139 2067 ft 229 kts 152°
2026-04-27 12:50 55.01002 73.51929 1990 ft 210 kts 189°
2026-04-27 12:51 54.99778 73.50887 1999 ft 186 kts 233°
2026-04-27 12:51 54.99252 73.49077 2011 ft 160 kts 252°
2026-04-27 12:51 54.98930 73.47289 1931 ft 151 kts 255°
2026-04-27 12:51 54.98668 73.45563 1811 ft 143 kts 257°
2026-04-27 12:52 54.98433 73.43890 1617 ft 141 kts 258°
2026-04-27 12:52 54.98208 73.42243 1429 ft 139 kts 258°
2026-04-27 12:52 54.97988 73.40602 1237 ft 139 kts 257°
2026-04-27 12:52 54.97767 73.38965 1060 ft 139 kts 257°
2026-04-27 12:53 54.97345 73.35695 654 ft 138 kts 258°
2026-04-27 12:53 54.97127 73.34065 476 ft 141 kts 256°
2026-04-27 12:53 54.96888 73.32414 321 ft 139 kts 254°
2026-04-27 12:54 54.96706 73.30970 312 ft 104 kts 257°